Location: Casilda
(33.0440°S, 61.1680°W)
Time: 12:55:21
(UTC-03:00)

ISS - Pass Details

Date: 24 May 2020
Orbit: 417 x 420 km, 51.6° (Epoch: 26 May)

Event Time Altitude Azimuth Distance (km) Brightness Sun altitude
Exits shadow 06:22:01 50° 190° (S) 551 -3.4 -19.2°
Drops below altitude 10° 06:24:58 10° 143° (SE) 1,522 -0.6 -18.6°
Sets 06:27:07 0° 138° (SE) 2,393 0.5 -18.2°
